Volver al catálogo

GOES 2

ActivoMeteoGEO
NORAD 10061·PAYLOAD·🇺🇸 United States

Lanzado Jun 16, 1977 desde Cape Canaveral Space Force Station

Loading…

TLE

ActualizadoSource: Space-Track

Época: Sep 14, 2026, 13:26 UTC

1 10061U 77048A   26257.56031051  .00000085  00000-0  00000-0 0  9990
2 10061   6.2138 292.7229 0011233  52.5516  74.3166  0.99396026 47166

Sigue GOES 2 en tiempo real con AllMySat

Download on the App Store